Simultaneous Nadir Overpasses (SNOs) Predictions

Prediction of SNOs between NOAA-19 and TERRA Satellite Orbit:

Table of predicted SNOs for the next 14.0 days since TLE Epoch: 8/31/2012
Index Date (NOAA-19) Time (NOAA-19) NOAA-19 Lat,Lon Date (TERRA) Time (TERRA) TERRA Lat,Lon Distance(km) Time Diff (sec)
1 09/02/2012 00:09:02 69.12, 177.04 09/02/2012 00:09:32 69.10, 177.09 3.23 30
2 09/02/2012 00:59:54 -68.92, -15.42 09/02/2012 00:59:03 -68.94, -15.48 3.07 51
3 09/04/2012 04:53:38 69.03, 106.01 09/04/2012 04:53:51 69.05, 105.94 3.17 13
4 09/04/2012 05:44:32 -68.94, -86.59 09/04/2012 05:43:21 -68.94, -86.55 1.61 71
5 09/06/2012 08:47:23 -69.90,-133.63 09/06/2012 08:48:31 -69.77,-131.82 70.91 68
6 09/06/2012 09:38:16 69.05, 34.83 09/06/2012 09:38:09 69.04, 34.86 1.30 7
7 09/06/2012 10:28:59 -68.37,-156.97 09/06/2012 10:27:48 -68.45,-158.25 53.10 71
8 09/08/2012 13:31:48 -69.23, 156.21 09/08/2012 13:32:59 -69.21, 156.36 6.22 71
9 09/08/2012 14:22:53 69.02, -36.27 09/08/2012 14:22:27 69.04, -36.22 3.18 26
10 09/10/2012 18:16:24 -69.14, 85.19 09/10/2012 18:17:18 -69.15, 85.20 1.46 54
11 09/10/2012 19:07:30 68.99,-107.38 09/10/2012 19:06:46 68.97,-107.38 1.37 44
12 09/12/2012 23:01:01 -69.09, 14.10 09/12/2012 23:01:37 -69.08, 14.04 2.83 36
13 09/12/2012 23:52:07 68.96,-178.49 09/12/2012 23:51:04 68.96,-178.47 0.84 63




NCC Satellite Simultaneous Nadir Overpasses (SNOs) Prediction Service
